| time (UTC) | temp C | wind direction | speed KPH | gust KPH | rain 1hr cm | rain 24hr cm | rain mn cm | humidity % | barometer mb |
| 20260902232532 | 23 | 273 | 6.4 | 16.1 | 0.00 | 0.00 | 0.00 | 71 | 1014.6 |
| 20260902232033 | 23 | 293 | 4.8 | 16.1 | 0.00 | 0.00 | 0.00 | 71 | 1014.6 |
| 20260902231558 | 23 | 272 | 8.0 | 16.1 | 0.00 | 0.00 | 0.00 | 71 | 1014.7 |
| 20260902231032 | 23 | 244 | 4.8 | 16.1 | 0.00 | 0.00 | 0.00 | 71 | 1014.6 |
| 20260902230535 | 24 | 215 | 6.4 | 16.1 | 0.00 | 0.00 | 0.00 | 71 | 1014.6 |
| 20260902230107 | 24 | 263 | 8.0 | 16.1 | 0.00 | 0.00 | 0.00 | 71 | 1014.8 |
| 20260902225531 | 24 | 259 | 4.8 | 14.5 | 0.00 | 0.00 | 0.00 | 70 | 1014.8 |
| 20260902225032 | 24 | 290 | 6.4 | 14.5 | 0.00 | 0.00 | 0.00 | 71 | 1014.9 |
| 20260902224603 | 24 | 277 | 8.0 | 14.5 | 0.00 | 0.00 | 0.00 | 70 | 1014.9 |
| 20260902224031 | 24 | 270 | 6.4 | 14.5 | 0.00 | 0.00 | 0.00 | 69 | 1015.0 |
| 20260902223531 | 24 | 221 | 6.4 | 12.9 | 0.00 | 0.00 | 0.00 | 70 | 1015.0 |
| 20260902223116 | 24 | 286 | 4.8 | 11.3 | 0.00 | 0.00 | 0.00 | 69 | 1015.0 |
| 20260902222530 | 24 | 283 | 6.4 | 16.1 | 0.00 | 0.00 | 0.00 | 70 | 1015.1 |
| 20260902222034 | 24 | 243 | 6.4 | 16.1 | 0.00 | 0.00 | 0.00 | 70 | 1015.1 |
| 20260902221555 | 24 | 304 | 4.8 | 19.3 | 0.00 | 0.00 | 0.00 | 70 | 1015.1 |
| 20260902221034 | 24 | 262 | 8.0 | 19.3 | 0.00 | 0.00 | 0.00 | 70 | 1015.2 |
| 20260902220532 | 24 | 279 | 6.4 | 16.1 | 0.00 | 0.00 | 0.00 | 69 | 1015.2 |
| 20260902220054 | 24 | 248 | 6.4 | 14.5 | 0.00 | 0.00 | 0.00 | 70 | 1015.2 |
| 20260902215534 | 24 | 287 | 6.4 | 14.5 | 0.00 | 0.00 | 0.00 | 68 | 1015.2 |
| 20260902215032 | 24 | 283 | 6.4 | 14.5 | 0.00 | 0.00 | 0.00 | 69 | 1015.2 |
| 20260902214555 | 24 | 268 | 6.4 | 14.5 | 0.00 | 0.00 | 0.00 | 69 | 1015.2 |
| 20260902214032 | 24 | 269 | 4.8 | 14.5 | 0.00 | 0.00 | 0.00 | 70 | 1015.2 |
| 20260902213532 | 24 | 290 | 4.8 | 16.1 | 0.00 | 0.00 | 0.00 | 70 | 1015.3 |
| 20260902213055 | 24 | 296 | 8.0 | 16.1 | 0.00 | 0.00 | 0.00 | 70 | 1015.3 |
| 20260902212533 | 24 | 306 | 8.0 | 14.5 | 0.00 | 0.00 | 0.00 | 70 | 1015.4 |
| 20260902212033 | 23 | 308 | 6.4 | 16.1 | 0.00 | 0.00 | 0.00 | 71 | 1015.5 |
| 20260902211556 | 23 | 207 | 8.0 | 16.1 | 0.00 | 0.00 | 0.00 | 72 | 1015.5 |
| 20260902211031 | 23 | 249 | 4.8 | 16.1 | 0.00 | 0.00 | 0.00 | 72 | 1015.5 |
| 20260902210532 | 23 | 259 | 8.0 | 16.1 | 0.00 | 0.00 | 0.00 | 71 | 1015.5 |
| 20260902210052 | 23 | 247 | 8.0 | 16.1 | 0.00 | 0.00 | 0.00 | 72 | 1015.5 |
| 20260902205531 | 23 | 299 | 8.0 | 19.3 | 0.00 | 0.00 | 0.00 | 72 | 1015.4 |
| 20260902205034 | 23 | 251 | 6.4 | 19.3 | 0.00 | 0.00 | 0.00 | 72 | 1015.5 |
| 20260902204630 | 23 | 283 | 6.4 | 14.5 | 0.00 | 0.00 | 0.00 | 73 | 1015.5 |
| 20260902204034 | 23 | 289 | 8.0 | 16.1 | 0.00 | 0.00 | 0.00 | 72 | 1015.5 |
| 20260902203534 | 23 | 296 | 6.4 | 16.1 | 0.00 | 0.00 | 0.00 | 73 | 1015.5 |
| 20260902203056 | 23 | 296 | 8.0 | 16.1 | 0.00 | 0.00 | 0.00 | 73 | 1015.5 |
| 20260902202533 | 23 | 303 | 6.4 | 14.5 | 0.00 | 0.00 | 0.00 | 73 | 1015.6 |
| 20260902202034 | 23 | 284 | 8.0 | 14.5 | 0.00 | 0.00 | 0.00 | 73 | 1015.6 |
| 20260902201558 | 23 | 273 | 8.0 | 14.5 | 0.00 | 0.00 | 0.00 | 74 | 1015.7 |
| 20260902201031 | 23 | 259 | 6.4 | 16.1 | 0.00 | 0.00 | 0.00 | 74 | 1015.7 |
| 20260902200532 | 23 | 285 | 6.4 | 16.1 | 0.00 | 0.00 | 0.00 | 74 | 1015.8 |
| 20260902200051 | 23 | 280 | 8.0 | 16.1 | 0.00 | 0.00 | 0.00 | 74 | 1015.9 |
| 20260902195532 | 23 | 306 | 6.4 | 16.1 | 0.00 | 0.00 | 0.00 | 74 | 1015.9 |
| 20260902195034 | 23 | 278 | 6.4 | 16.1 | 0.00 | 0.00 | 0.00 | 74 | 1015.8 |
| 20260902194602 | 23 | 283 | 8.0 | 16.1 | 0.00 | 0.00 | 0.00 | 74 | 1015.8 |
| 20260902194031 | 23 | 230 | 6.4 | 17.7 | 0.00 | 0.00 | 0.00 | 74 | 1015.8 |
| 20260902193532 | 23 | 267 | 8.0 | 17.7 | 0.00 | 0.00 | 0.00 | 74 | 1015.9 |
| 20260902193058 | 23 | 271 | 6.4 | 17.7 | 0.00 | 0.00 | 0.00 | 74 | 1016.0 |
| 20260902192531 | 23 | 263 | 6.4 | 12.9 | 0.00 | 0.00 | 0.00 | 75 | 1016.1 |
| 20260902192032 | 23 | 271 | 6.4 | 14.5 | 0.00 | 0.00 | 0.00 | 75 | 1016.1 |
| 20260902191555 | 23 | 231 | 6.4 | 14.5 | 0.00 | 0.00 | 0.00 | 75 | 1016.1 |
| 20260902191031 | 23 | 249 | 8.0 | 16.1 | 0.00 | 0.00 | 0.00 | 75 | 1016.1 |
| 20260902190535 | 23 | 266 | 6.4 | 16.1 | 0.00 | 0.00 | 0.00 | 75 | 1016.0 |
| 20260902185538 | 23 | 289 | 6.4 | 14.5 | 0.00 | 0.00 | 0.00 | 75 | 1016.0 |
| 20260902185036 | 23 | 294 | 4.8 | 12.9 | 0.00 | 0.00 | 0.00 | 76 | 1016.1 |
| 20260902184605 | 23 | 309 | 4.8 | 11.3 | 0.00 | 0.00 | 0.00 | 76 | 1016.1 |
| 20260902184034 | 23 | 227 | 4.8 | 16.1 | 0.00 | 0.00 | 0.00 | 76 | 1016.2 |
| 20260902183535 | 22 | 243 | 6.4 | 16.1 | 0.00 | 0.00 | 0.00 | 76 | 1016.3 |
| 20260902183112 | 22 | 225 | 4.8 | 17.7 | 0.00 | 0.00 | 0.00 | 76 | 1016.3 |
| 20260902182536 | 22 | 289 | 6.4 | 17.7 | 0.00 | 0.00 | 0.00 | 76 | 1016.4 |
| 20260902182035 | 22 | 251 | 4.8 | 12.9 | 0.00 | 0.00 | 0.00 | 77 | 1016.5 |
| 20260902181612 | 22 | 244 | 4.8 | 12.9 | 0.00 | 0.00 | 0.00 | 77 | 1016.5 |
| 20260902181032 | 22 | 261 | 6.4 | 12.9 | 0.00 | 0.00 | 0.00 | 77 | 1016.6 |
| 20260902180532 | 22 | 291 | 4.8 | 12.9 | 0.00 | 0.00 | 0.00 | 77 | 1016.5 |
| 20260902180057 | 22 | 229 | 4.8 | 11.3 | 0.00 | 0.00 | 0.00 | 78 | 1016.5 |
| 20260902175532 | 22 | 300 | 4.8 | 12.9 | 0.00 | 0.00 | 0.00 | 77 | 1016.5 |
| 20260902175036 | 22 | 284 | 4.8 | 12.9 | 0.00 | 0.00 | 0.00 | 78 | 1016.5 |
| 20260902174602 | 22 | 240 | 4.8 | 12.9 | 0.00 | 0.00 | 0.00 | 79 | 1016.5 |
| 20260902174035 | 22 | 306 | 4.8 | 12.9 | 0.00 | 0.00 | 0.00 | 79 | 1016.4 |
| 20260902173535 | 22 | 308 | 6.4 | 12.9 | 0.00 | 0.00 | 0.00 | 79 | 1016.4 |
| 20260902173114 | 22 | 265 | 4.8 | 12.9 | 0.00 | 0.00 | 0.00 | 79 | 1016.4 |
| 20260902172536 | 22 | 212 | 6.4 | 12.9 | 0.00 | 0.00 | 0.00 | 78 | 1016.4 |
| 20260902172035 | 22 | 252 | 4.8 | 12.9 | 0.00 | 0.00 | 0.00 | 79 | 1016.4 |
| 20260902171606 | 22 | 273 | 4.8 | 12.9 | 0.00 | 0.00 | 0.00 | 79 | 1016.4 |
| 20260902171036 | 21 | 234 | 4.8 | 9.7 | 0.00 | 0.00 | 0.00 | 78 | 1016.3 |
| 20260902170532 | 21 | 255 | 3.2 | 9.7 | 0.00 | 0.00 | 0.00 | 80 | 1016.2 |
| 20260902170057 | 21 | 192 | 0.0 | 8.0 | 0.00 | 0.00 | 0.00 | 81 | 1016.2 |
| 20260902165536 | 21 | 219 | 0.0 | 8.0 | 0.00 | 0.00 | 0.00 | 82 | 1016.1 |
| 20260902165036 | 20 | 204 | 1.6 | 6.4 | 0.00 | 0.00 | 0.00 | 83 | 1016.1 |
| 20260902164605 | 20 | 200 | 0.0 | 4.8 | 0.00 | 0.00 | 0.00 | 84 | 1016.2 |
| 20260902164036 | 20 | 0 | 0.0 | 4.8 | 0.00 | 0.00 | 0.00 | 85 | 1016.2 |
| 20260902163536 | 20 | 0 | 0.0 | 8.0 | 0.00 | 0.00 | 0.00 | 85 | 1016.2 |
| 20260902163106 | 20 | 0 | 1.6 | 8.0 | 0.00 | 0.00 | 0.00 | 86 | 1016.2 |
| 20260902162536 | 20 | 38 | 1.6 | 8.0 | 0.00 | 0.00 | 0.00 | 86 | 1016.2 |
| 20260902162036 | 20 | 0 | 1.6 | 8.0 | 0.00 | 0.00 | 0.00 | 87 | 1016.3 |
| 20260902161600 | 19 | 244 | 3.2 | 8.0 | 0.00 | 0.00 | 0.00 | 88 | 1016.3 |
| 20260902161035 | 19 | 272 | 3.2 | 8.0 | 0.00 | 0.00 | 0.00 | 89 | 1016.3 |
| 20260902160532 | 19 | 237 | 0.0 | 4.8 | 0.00 | 0.00 | 0.00 | 89 | 1016.2 |
| 20260902160054 | 18 | 0 | 1.6 | 6.4 | 0.00 | 0.00 | 0.00 | 90 | 1016.3 |
| 20260902155535 | 18 | 0 | 1.6 | 6.4 | 0.00 | 0.00 | 0.00 | 90 | 1016.3 |
| 20260902155035 | 18 | 233 | 1.6 | 3.2 | 0.00 | 0.00 | 0.00 | 90 | 1016.1 |
| 20260902154552 | 18 | 0 | 0.0 | 3.2 | 0.00 | 0.00 | 0.00 | 91 | 1016.1 |
| 20260902154031 | 18 | 0 | 0.0 | 3.2 | 0.00 | 0.00 | 0.00 | 90 | 1016.1 |
| 20260902153532 | 18 | 0 | 0.0 | 3.2 | 0.00 | 0.00 | 0.00 | 91 | 1016.1 |
| 20260902153059 | 18 | 0 | 0.0 | 1.6 | 0.00 | 0.00 | 0.00 | 91 | 1016.2 |
| 20260902152538 | 18 | 0 | 0.0 | 1.6 | 0.00 | 0.00 | 0.00 | 90 | 1016.1 |
| 20260902152035 | 18 | 0 | 0.0 | 1.6 | 0.00 | 0.00 | 0.00 | 91 | 1016.1 |
| 20260902151551 | 18 | 0 | 0.0 | 1.6 | 0.00 | 0.00 | 0.00 | 91 | 1016.1 |
| 20260902151036 | 18 | 0 | 0.0 | 1.6 | 0.00 | 0.00 | 0.00 | 91 | 1016.2 |
| 20260902150532 | 17 | 0 | 0.0 | 1.6 | 0.00 | 0.00 | 0.00 | 91 | 1016.1 |
| 20260902150055 | 17 | 0 | 0.0 | 1.6 | 0.00 | 0.00 | 0.00 | 91 | 1016.1 |
| 20260902145534 | 17 | 0 | 0.0 | 3.2 | 0.00 | 0.00 | 0.00 | 91 | 1016.2 |
| 20260902145036 | 17 | 0 | 0.0 | 3.2 | 0.00 | 0.00 | 0.00 | 91 | 1016.2 |
| 20260902144603 | 17 | 0 | 0.0 | 1.6 | 0.00 | 0.00 | 0.00 | 91 | 1016.3 |
| 20260902144032 | 17 | 0 | 0.0 | 1.6 | 0.00 | 0.00 | 0.00 | 91 | 1016.2 |
| 20260902143533 | 17 | 0 | 0.0 | 1.6 | 0.00 | 0.00 | 0.00 | 91 | 1016.1 |
| 20260902143103 | 17 | 0 | 0.0 | 1.6 | 0.00 | 0.00 | 0.00 | 91 | 1016.0 |
| 20260902142533 | 17 | 0 | 0.0 | 1.6 | 0.00 | 0.00 | 0.00 | 91 | 1016.1 |
| 20260902142035 | 17 | 0 | 0.0 | 0.0 | 0.00 | 0.00 | 0.00 | 91 | 1016.1 |
| 20260902141557 | 17 | 0 | 0.0 | 0.0 | 0.00 | 0.00 | 0.00 | 91 | 1016.1 |
| 20260902141033 | 17 | 0 | 0.0 | 0.0 | 0.00 | 0.00 | 0.00 | 91 | 1016.0 |
| 20260902140535 | 17 | 0 | 0.0 | 0.0 | 0.00 | 0.00 | 0.00 | 91 | 1015.9 |
| 20260902140056 | 17 | 0 | 0.0 | 0.0 | 0.00 | 0.00 | 0.00 | 91 | 1015.9 |
| 20260902135535 | 17 | 0 | 0.0 | 0.0 | 0.00 | 0.00 | 0.00 | 91 | 1015.8 |
| 20260902135032 | 17 | 0 | 0.0 | 0.0 | 0.00 | 0.00 | 0.00 | 91 | 1015.7 |
| 20260902134555 | 17 | 0 | 0.0 | 0.0 | 0.00 | 0.00 | 0.00 | 90 | 1015.6 |
| 20260902134032 | 17 | 0 | 0.0 | 0.0 | 0.00 | 0.00 | 0.00 | 90 | 1015.5 |
| 20260902133532 | 17 | 0 | 0.0 | 0.0 | 0.00 | 0.00 | 0.00 | 90 | 1015.5 |
| 20260902133055 | 17 | 0 | 0.0 | 0.0 | 0.00 | 0.00 | 0.00 | 90 | 1015.5 |
| 20260902132532 | 17 | 0 | 0.0 | 0.0 | 0.00 | 0.00 | 0.00 | 90 | 1015.5 |
| 20260902132035 | 17 | 0 | 0.0 | 0.0 | 0.00 | 0.00 | 0.00 | 90 | 1015.5 |
| 20260902131559 | 17 | 0 | 0.0 | 0.0 | 0.00 | 0.00 | 0.00 | 90 | 1015.5 |
| 20260902131033 | 17 | 0 | 0.0 | 0.0 | 0.00 | 0.00 | 0.00 | 90 | 1015.4 |
| 20260902130537 | 17 | 0 | 0.0 | 0.0 | 0.00 | 0.00 | 0.00 | 91 | 1015.4 |
| 20260902130100 | 17 | 0 | 0.0 | 0.0 | 0.00 | 0.00 | 0.00 | 91 | 1015.4 |
| 20260902125535 | 17 | 0 | 0.0 | 0.0 | 0.00 | 0.00 | 0.00 | 90 | 1015.4 |
| 20260902125032 | 17 | 0 | 0.0 | 0.0 | 0.00 | 0.00 | 0.00 | 90 | 1015.4 |
| 20260902124554 | 17 | 0 | 0.0 | 0.0 | 0.00 | 0.00 | 0.00 | 90 | 1015.3 |
| 20260902124035 | 17 | 0 | 0.0 | 0.0 | 0.00 | 0.00 | 0.00 | 90 | 1015.3 |
| 20260902123535 | 17 | 0 | 0.0 | 0.0 | 0.00 | 0.00 | 0.00 | 90 | 1015.4 |
| 20260902123101 | 17 | 0 | 0.0 | 0.0 | 0.00 | 0.00 | 0.00 | 90 | 1015.3 |
| 20260902122535 | 17 | 0 | 0.0 | 0.0 | 0.00 | 0.00 | 0.00 | 90 | 1015.3 |
| 20260902122033 | 17 | 0 | 0.0 | 0.0 | 0.00 | 0.00 | 0.00 | 90 | 1015.3 |
| 20260902121556 | 17 | 0 | 0.0 | 0.0 | 0.00 | 0.00 | 0.00 | 90 | 1015.3 |
| 20260902121034 | 17 | 0 | 0.0 | 0.0 | 0.00 | 0.00 | 0.00 | 90 | 1015.2 |
| 20260902120532 | 17 | 0 | 0.0 | 0.0 | 0.00 | 0.00 | 0.00 | 90 | 1015.2 |
| 20260902120105 | 17 | 0 | 0.0 | 0.0 | 0.00 | 0.00 | 0.00 | 90 | 1015.3 |
| 20260902115532 | 17 | 0 | 0.0 | 0.0 | 0.00 | 0.00 | 0.00 | 90 | 1015.3 |
| 20260902115032 | 17 | 0 | 0.0 | 0.0 | 0.00 | 0.00 | 0.00 | 90 | 1015.3 |
| 20260902114601 | 17 | 0 | 0.0 | 0.0 | 0.00 | 0.00 | 0.00 | 90 | 1015.3 |
| 20260902114032 | 17 | 0 | 0.0 | 0.0 | 0.00 | 0.00 | 0.00 | 90 | 1015.3 |
| 20260902113531 | 17 | 0 | 0.0 | 0.0 | 0.00 | 0.00 | 0.00 | 90 | 1015.4 |
| 20260902113101 | 17 | 0 | 0.0 | 0.0 | 0.00 | 0.00 | 0.00 | 90 | 1015.4 |
| 20260902112534 | 17 | 0 | 0.0 | 0.0 | 0.00 | 0.00 | 0.00 | 89 | 1015.4 |
| 20260902112035 | 17 | 0 | 0.0 | 0.0 | 0.00 | 0.00 | 0.00 | 89 | 1015.4 |
| 20260902111602 | 17 | 0 | 0.0 | 0.0 | 0.00 | 0.00 | 0.00 | 89 | 1015.4 |
| 20260902111035 | 17 | 0 | 0.0 | 0.0 | 0.00 | 0.00 | 0.00 | 89 | 1015.3 |
| 20260902110535 | 17 | 0 | 0.0 | 0.0 | 0.00 | 0.00 | 0.00 | 89 | 1015.4 |
| 20260902110103 | 17 | 0 | 0.0 | 0.0 | 0.00 | 0.00 | 0.00 | 89 | 1015.4 |
| 20260902105535 | 17 | 0 | 0.0 | 0.0 | 0.00 | 0.00 | 0.00 | 89 | 1015.4 |
| 20260902105035 | 17 | 0 | 0.0 | 0.0 | 0.00 | 0.00 | 0.00 | 89 | 1015.3 |
| 20260902104615 | 17 | 0 | 0.0 | 0.0 | 0.00 | 0.00 | 0.00 | 89 | 1015.4 |
| 20260902104036 | 17 | 0 | 0.0 | 0.0 | 0.00 | 0.00 | 0.00 | 89 | 1015.5 |
| 20260902103531 | 17 | 0 | 0.0 | 0.0 | 0.00 | 0.00 | 0.00 | 89 | 1015.5 |
| 20260902103117 | 18 | 0 | 0.0 | 0.0 | 0.00 | 0.00 | 0.00 | 89 | 1015.5 |
| 20260902102532 | 18 | 0 | 0.0 | 0.0 | 0.00 | 0.00 | 0.00 | 89 | 1015.6 |
| 20260902102031 | 18 | 0 | 0.0 | 0.0 | 0.00 | 0.00 | 0.00 | 88 | 1015.6 |
| 20260902101605 | 18 | 0 | 0.0 | 0.0 | 0.00 | 0.00 | 0.00 | 88 | 1015.6 |
| 20260902101032 | 18 | 0 | 0.0 | 0.0 | 0.00 | 0.00 | 0.00 | 88 | 1015.6 |
| 20260902100535 | 18 | 0 | 0.0 | 0.0 | 0.00 | 0.00 | 0.00 | 88 | 1015.6 |
| 20260902100057 | 18 | 0 | 0.0 | 0.0 | 0.00 | 0.00 | 0.00 | 88 | 1015.7 |
| 20260902095534 | 18 | 0 | 0.0 | 0.0 | 0.00 | 0.00 | 0.00 | 88 | 1015.8 |
| 20260902095037 | 18 | 0 | 0.0 | 0.0 | 0.00 | 0.00 | 0.00 | 88 | 1015.7 |
| 20260902094552 | 18 | 0 | 0.0 | 0.0 | 0.00 | 0.00 | 0.00 | 88 | 1015.8 |
| 20260902094035 | 18 | 0 | 0.0 | 0.0 | 0.00 | 0.00 | 0.00 | 88 | 1015.8 |
| 20260902093532 | 18 | 0 | 0.0 | 0.0 | 0.00 | 0.00 | 0.00 | 88 | 1015.8 |
| 20260902093051 | 18 | 0 | 0.0 | 0.0 | 0.00 | 0.00 | 0.00 | 88 | 1015.8 |
| 20260902092531 | 18 | 0 | 0.0 | 0.0 | 0.00 | 0.00 | 0.00 | 88 | 1015.8 |
| 20260902092035 | 18 | 0 | 0.0 | 0.0 | 0.00 | 0.00 | 0.00 | 88 | 1015.9 |
| 20260902091556 | 18 | 0 | 0.0 | 0.0 | 0.00 | 0.00 | 0.00 | 88 | 1016.0 |
| 20260902091035 | 18 | 0 | 0.0 | 0.0 | 0.00 | 0.00 | 0.00 | 87 | 1016.0 |
| 20260902090535 | 18 | 0 | 0.0 | 0.0 | 0.00 | 0.00 | 0.00 | 87 | 1016.0 |
| 20260902090057 | 18 | 0 | 0.0 | 0.0 | 0.00 | 0.00 | 0.00 | 87 | 1016.1 |
| 20260902085534 | 18 | 0 | 0.0 | 0.0 | 0.00 | 0.00 | 0.00 | 87 | 1016.1 |
| 20260902085034 | 18 | 0 | 0.0 | 0.0 | 0.00 | 0.00 | 0.00 | 87 | 1016.1 |
| 20260902084556 | 18 | 0 | 0.0 | 0.0 | 0.00 | 0.00 | 0.00 | 87 | 1016.1 |
| 20260902084035 | 18 | 0 | 0.0 | 0.0 | 0.00 | 0.00 | 0.00 | 87 | 1016.2 |
| 20260902083536 | 18 | 0 | 0.0 | 0.0 | 0.00 | 0.00 | 0.00 | 87 | 1016.2 |
| 20260902083055 | 18 | 0 | 0.0 | 0.0 | 0.00 | 0.00 | 0.00 | 87 | 1016.1 |
| 20260902082531 | 18 | 0 | 0.0 | 0.0 | 0.00 | 0.00 | 0.00 | 87 | 1016.0 |
| 20260902082035 | 18 | 0 | 0.0 | 0.0 | 0.00 | 0.00 | 0.00 | 86 | 1016.0 |
| 20260902081557 | 18 | 0 | 0.0 | 0.0 | 0.00 | 0.00 | 0.00 | 86 | 1016.1 |
| 20260902081031 | 18 | 0 | 0.0 | 1.6 | 0.00 | 0.00 | 0.00 | 86 | 1016.1 |
| 20260902080535 | 18 | 0 | 0.0 | 1.6 | 0.00 | 0.00 | 0.00 | 86 | 1016.0 |
| 20260902080054 | 18 | 0 | 0.0 | 1.6 | 0.00 | 0.00 | 0.00 | 86 | 1016.1 |
| 20260902075534 | 19 | 0 | 0.0 | 0.0 | 0.00 | 0.00 | 0.00 | 86 | 1016.1 |
| 20260902075035 | 19 | 0 | 0.0 | 0.0 | 0.00 | 0.00 | 0.00 | 86 | 1016.1 |
| 20260902074551 | 19 | 0 | 0.0 | 0.0 | 0.00 | 0.00 | 0.00 | 86 | 1016.1 |
| 20260902074034 | 19 | 0 | 0.0 | 0.0 | 0.00 | 0.00 | 0.00 | 86 | 1016.0 |
| 20260902073534 | 19 | 0 | 0.0 | 0.0 | 0.00 | 0.00 | 0.00 | 86 | 1015.9 |
| 20260902073051 | 19 | 0 | 0.0 | 0.0 | 0.00 | 0.00 | 0.00 | 86 | 1016.0 |
| 20260902072538 | 19 | 0 | 0.0 | 0.0 | 0.00 | 0.00 | 0.00 | 86 | 1015.9 |
| 20260902072036 | 19 | 0 | 0.0 | 0.0 | 0.00 | 0.00 | 0.00 | 86 | 1015.9 |
| 20260902071558 | 19 | 0 | 0.0 | 0.0 | 0.00 | 0.00 | 0.00 | 86 | 1015.9 |
| 20260902071031 | 19 | 0 | 0.0 | 0.0 | 0.00 | 0.00 | 0.00 | 86 | 1015.8 |
| 20260902070532 | 19 | 0 | 0.0 | 0.0 | 0.00 | 0.00 | 0.00 | 86 | 1015.9 |
| 20260902070100 | 20 | 0 | 0.0 | 0.0 | 0.00 | 0.00 | 0.00 | 86 | 1015.8 |
| 20260902065537 | 20 | 0 | 0.0 | 0.0 | 0.00 | 0.00 | 0.00 | 86 | 1015.8 |
| 20260902065035 | 20 | 0 | 0.0 | 1.6 | 0.00 | 0.00 | 0.00 | 86 | 1015.8 |
| 20260902064604 | 20 | 0 | 0.0 | 1.6 | 0.00 | 0.00 | 0.00 | 86 | 1015.7 |
| 20260902064037 | 20 | 0 | 0.0 | 1.6 | 0.00 | 0.00 | 0.00 | 86 | 1015.7 |
| 20260902063534 | 20 | 0 | 0.0 | 1.6 | 0.00 | 0.00 | 0.00 | 86 | 1015.7 |
| 20260902063104 | 20 | 0 | 0.0 | 1.6 | 0.00 | 0.00 | 0.00 | 86 | 1015.6 |
| 20260902062536 | 20 | 0 | 0.0 | 3.2 | 0.00 | 0.00 | 0.00 | 86 | 1015.7 |
| 20260902062032 | 20 | 5 | 0.0 | 3.2 | 0.00 | 0.00 | 0.00 | 86 | 1015.7 |
| 20260902061622 | 20 | 0 | 0.0 | 1.6 | 0.00 | 0.00 | 0.00 | 86 | 1015.6 |
| 20260902061036 | 20 | 350 | 0.0 | 1.6 | 0.00 | 0.00 | 0.00 | 86 | 1015.6 |
| 20260902060531 | 20 | 0 | 0.0 | 1.6 | 0.00 | 0.00 | 0.00 | 86 | 1015.6 |
| 20260902060058 | 20 | 0 | 0.0 | 1.6 | 0.00 | 0.00 | 0.00 | 86 | 1015.6 |
| 20260902055533 | 20 | 0 | 0.0 | 1.6 | 0.00 | 0.00 | 0.00 | 87 | 1015.6 |
| 20260902055035 | 20 | 0 | 0.0 | 1.6 | 0.00 | 0.00 | 0.00 | 87 | 1015.6 |
| 20260902054554 | 20 | 0 | 0.0 | 1.6 | 0.00 | 0.00 | 0.00 | 87 | 1015.5 |
| 20260902054031 | 20 | 0 | 0.0 | 1.6 | 0.00 | 0.00 | 0.00 | 86 | 1015.6 |
| 20260902053532 | 20 | 0 | 0.0 | 1.6 | 0.00 | 0.00 | 0.00 | 86 | 1015.6 |
| 20260902053052 | 20 | 0 | 0.0 | 1.6 | 0.00 | 0.00 | 0.00 | 86 | 1015.6 |
| 20260902052532 | 20 | 0 | 0.0 | 0.0 | 0.00 | 0.00 | 0.00 | 86 | 1015.6 |
| 20260902052032 | 20 | 0 | 0.0 | 0.0 | 0.00 | 0.00 | 0.00 | 86 | 1015.7 |
| 20260902051614 | 20 | 0 | 0.0 | 0.0 | 0.00 | 0.00 | 0.00 | 86 | 1015.7 |
| 20260902051031 | 20 | 0 | 0.0 | 0.0 | 0.00 | 0.00 | 0.00 | 86 | 1015.7 |
| 20260902050531 | 20 | 0 | 0.0 | 1.6 | 0.00 | 0.00 | 0.00 | 86 | 1015.6 |
| 20260902050057 | 20 | 0 | 0.0 | 1.6 | 0.00 | 0.00 | 0.00 | 86 | 1015.7 |
| 20260902045534 | 20 | 0 | 0.0 | 1.6 | 0.00 | 0.00 | 0.00 | 86 | 1015.7 |
| 20260902045035 | 20 | 0 | 0.0 | 1.6 | 0.00 | 0.00 | 0.00 | 86 | 1015.7 |
| 20260902044607 | 20 | 0 | 0.0 | 1.6 | 0.00 | 0.00 | 0.00 | 86 | 1015.6 |
| 20260902044032 | 20 | 0 | 0.0 | 1.6 | 0.00 | 0.00 | 0.00 | 86 | 1015.6 |
| 20260902043534 | 20 | 0 | 0.0 | 1.6 | 0.00 | 0.00 | 0.00 | 86 | 1015.5 |
| 20260902043051 | 20 | 0 | 0.0 | 1.6 | 0.00 | 0.00 | 0.00 | 86 | 1015.4 |
| 20260902042535 | 20 | 0 | 0.0 | 3.2 | 0.00 | 0.00 | 0.00 | 86 | 1015.4 |
| 20260902042034 | 20 | 0 | 0.0 | 3.2 | 0.00 | 0.00 | 0.00 | 86 | 1015.2 |
| 20260902041604 | 20 | 0 | 0.0 | 1.6 | 0.00 | 0.00 | 0.00 | 86 | 1015.1 |
| 20260902041034 | 20 | 0 | 0.0 | 1.6 | 0.00 | 0.00 | 0.00 | 86 | 1015.0 |
| 20260902040534 | 20 | 0 | 0.0 | 1.6 | 0.00 | 0.00 | 0.00 | 85 | 1015.0 |
| 20260902040058 | 20 | 0 | 0.0 | 1.6 | 0.00 | 0.00 | 0.00 | 85 | 1014.8 |
| 20260902035530 | 20 | 0 | 0.0 | 4.8 | 0.00 | 0.00 | 0.00 | 85 | 1014.6 |
| 20260902035034 | 20 | 0 | 0.0 | 4.8 | 0.00 | 0.00 | 0.00 | 85 | 1014.6 |
| 20260902034604 | 21 | 308 | 0.0 | 4.8 | 0.00 | 0.00 | 0.00 | 86 | 1014.5 |
| 20260902034032 | 21 | 308 | 0.0 | 4.8 | 0.00 | 0.00 | 0.00 | 85 | 1014.4 |
| 20260902033534 | 21 | 0 | 0.0 | 4.8 | 0.00 | 0.00 | 0.00 | 85 | 1014.3 |
| 20260902033051 | 21 | 0 | 0.0 | 6.4 | 0.00 | 0.00 | 0.00 | 85 | 1014.2 |
| 20260902032535 | 21 | 305 | 1.6 | 6.4 | 0.00 | 0.00 | 0.00 | 85 | 1014.1 |
| 20260902032033 | 21 | 305 | 1.6 | 4.8 | 0.00 | 0.00 | 0.00 | 85 | 1014.1 |
| 20260902031617 | 21 | 254 | 0.0 | 4.8 | 0.00 | 0.00 | 0.00 | 84 | 1014.1 |
| 20260902031031 | 21 | 0 | 0.0 | 4.8 | 0.00 | 0.00 | 0.00 | 84 | 1014.1 |
| 20260902030534 | 21 | 315 | 0.0 | 4.8 | 0.00 | 0.00 | 0.00 | 83 | 1014.1 |
| 20260902030057 | 21 | 0 | 0.0 | 4.8 | 0.00 | 0.00 | 0.00 | 83 | 1014.1 |
| 20260902025535 | 21 | 296 | 1.6 | 4.8 | 0.00 | 0.00 | 0.00 | 83 | 1014.0 |
| 20260902025034 | 21 | 294 | 0.0 | 4.8 | 0.00 | 0.00 | 0.00 | 82 | 1014.0 |
| 20260902024559 | 21 | 311 | 1.6 | 6.4 | 0.00 | 0.00 | 0.00 | 82 | 1014.0 |
| 20260902024031 | 21 | 308 | 1.6 | 6.4 | 0.00 | 0.00 | 0.00 | 81 | 1013.9 |
| 20260902023531 | 21 | 305 | 1.6 | 6.4 | 0.00 | 0.00 | 0.00 | 81 | 1013.9 |
| 20260902023104 | 21 | 287 | 1.6 | 6.4 | 0.00 | 0.00 | 0.00 | 81 | 1013.9 |
| 20260902022532 | 21 | 265 | 3.2 | 6.4 | 0.00 | 0.00 | 0.00 | 81 | 1013.9 |
| 20260902022031 | 21 | 298 | 3.2 | 4.8 | 0.00 | 0.00 | 0.00 | 81 | 1013.9 |
| 20260902021600 | 22 | 263 | 1.6 | 6.4 | 0.00 | 0.00 | 0.00 | 81 | 1014.0 |
| 20260902021034 | 22 | 284 | 1.6 | 6.4 | 0.00 | 0.00 | 0.00 | 81 | 1014.1 |
| 20260902020535 | 22 | 248 | 3.2 | 11.3 | 0.00 | 0.00 | 0.00 | 80 | 1014.1 |
| 20260902020053 | 22 | 306 | 3.2 | 11.3 | 0.00 | 0.00 | 0.00 | 80 | 1014.0 |
| 20260902015531 | 22 | 253 | 3.2 | 8.0 | 0.00 | 0.00 | 0.00 | 79 | 1014.1 |
| 20260902015031 | 22 | 278 | 3.2 | 8.0 | 0.00 | 0.00 | 0.00 | 79 | 1014.1 |
| 20260902014552 | 22 | 261 | 1.6 | 9.7 | 0.00 | 0.00 | 0.00 | 78 | 1014.1 |
| 20260902014037 | 22 | 265 | 4.8 | 9.7 | 0.00 | 0.00 | 0.00 | 77 | 1014.1 |
| 20260902013534 | 23 | 248 | 3.2 | 11.3 | 0.00 | 0.00 | 0.00 | 77 | 1014.0 |
| 20260902013105 | 23 | 287 | 3.2 | 12.9 | 0.00 | 0.00 | 0.00 | 76 | 1014.0 |
| 20260902012533 | 23 | 298 | 4.8 | 12.9 | 0.00 | 0.00 | 0.00 | 75 | 1014.0 |
| 20260902012032 | 23 | 318 | 4.8 | 12.9 | 0.00 | 0.00 | 0.00 | 75 | 1014.0 |
| 20260902011555 | 23 | 271 | 4.8 | 12.9 | 0.00 | 0.00 | 0.00 | 75 | 1014.0 |
| 20260902011034 | 23 | 288 | 3.2 | 11.3 | 0.00 | 0.00 | 0.00 | 75 | 1014.0 |
| 20260902010532 | 23 | 275 | 4.8 | 12.9 | 0.00 | 0.00 | 0.00 | 75 | 1014.0 |
| 20260902010059 | 23 | 308 | 3.2 | 12.9 | 0.00 | 0.00 | 0.00 | 75 | 1014.0 |
| 20260902005532 | 23 | 304 | 4.8 | 12.9 | 0.00 | 0.00 | 0.00 | 74 | 1014.0 |
| 20260902005032 | 23 | 274 | 4.8 | 12.9 | 0.00 | 0.00 | 0.00 | 74 | 1014.0 |
| 20260902004552 | 23 | 241 | 6.4 | 12.9 | 0.00 | 0.00 | 0.00 | 73 | 1014.1 |
| 20260902004032 | 23 | 300 | 3.2 | 12.9 | 0.00 | 0.00 | 0.00 | 73 | 1014.1 |
| 20260902003531 | 23 | 325 | 4.8 | 12.9 | 0.00 | 0.00 | 0.00 | 73 | 1014.1 |
| 20260902003102 | 23 | 302 | 4.8 | 12.9 | 0.00 | 0.00 | 0.00 | 73 | 1014.0 |
| 20260902002532 | 23 | 302 | 3.2 | 14.5 | 0.00 | 0.00 | 0.00 | 73 | 1014.0 |
| 20260902002031 | 23 | 307 | 4.8 | 14.5 | 0.00 | 0.00 | 0.00 | 74 | 1014.0 |
| 20260902001554 | 23 | 280 | 6.4 | 14.5 | 0.00 | 0.00 | 0.00 | 74 | 1014.0 |
| 20260902001032 | 23 | 316 | 4.8 | 14.5 | 0.00 | 0.00 | 0.00 | 75 | 1013.9 |
| 20260902000532 | 23 | 278 | 4.8 | 17.7 | 0.00 | 0.00 | 0.00 | 75 | 1014.0 |
| 20260902000055 | 23 | 300 | 8.0 | 17.7 | 0.00 | 0.00 | 0.00 | 74 | 1014.0 |
| 20260901235532 | 23 | 287 | 6.4 | 16.1 | 0.00 | 0.00 | 0.00 | 74 | 1014.0 |
| 20260901235034 | 23 | 312 | 6.4 | 16.1 | 0.00 | 0.00 | 0.00 | 75 | 1014.2 |
| 20260901234550 | 23 | 273 | 8.0 | 16.1 | 0.00 | 0.00 | 0.00 | 75 | 1014.2 |
| 20260901234032 | 23 | 252 | 6.4 | 14.5 | 0.00 | 0.00 | 0.00 | 75 | 1014.3 |
| 20260901233531 | 23 | 265 | 8.0 | 17.7 | 0.00 | 0.00 | 0.00 | 75 | 1014.4 |
| 20260901233104 | 23 | 315 | 8.0 | 17.7 | 0.00 | 0.00 | 0.00 | 75 | 1014.4 |